UAL716 KDEN-KLAS

Flight info

Callsign UAL716
Flight time N/A
Altitude 38000
Route CONNR8 WERNR DCT ZAKRY DCT CHESZ DCT GGAPP CHOWW4
Aircraft B739/M-SDE2E3FGHIRWXY/LB1

Departure

Time 2026-05-06 21:57
Airport Denver International Airport (KDEN)

Arrival

Time N/A
Airport Harry Reid International Airport (KLAS)
Time Latitude Longitude Altitude Speed Heading
2026-05-06 21:29 39.85804 -104.67857 5363 ft 0 kts
2026-05-06 21:45 39.85803 -104.67857 5362 ft 1 kts
2026-05-06 21:45 39.85787 -104.67857 5362 ft 3 kts
2026-05-06 21:46 39.85767 -104.67857 5361 ft 3 kts
2026-05-06 21:46 39.85748 -104.67857 5362 ft 2 kts
2026-05-06 21:46 39.85744 -104.67857 5362 ft 0 kts
2026-05-06 21:49 39.85746 -104.67858 5362 ft 1 kts 351°
2026-05-06 21:49 39.85750 -104.67869 5362 ft 2 kts 287°
2026-05-06 21:50 39.85746 -104.67893 5363 ft 5 kts 254°
2026-05-06 21:50 39.85734 -104.67944 5363 ft 6 kts 249°
2026-05-06 21:50 39.85720 -104.67970 5365 ft 4 kts 230°
2026-05-06 21:50 39.85711 -104.67983 5364 ft 1 kts 226°
2026-05-06 21:51 39.85686 -104.68019 5362 ft 9 kts 233°
2026-05-06 21:51 39.85671 -104.68070 5363 ft 9 kts 259°
2026-05-06 21:51 39.85680 -104.68175 5362 ft 9 kts 288°
2026-05-06 21:51 39.85687 -104.68245 5365 ft 7 kts 273°
2026-05-06 21:52 39.85688 -104.68289 5365 ft 7 kts 270°
2026-05-06 21:52 39.85683 -104.68362 5365 ft 9 kts 245°
2026-05-06 21:52 39.85632 -104.68396 5363 ft 9 kts 184°
2026-05-06 21:52 39.85562 -104.68397 5364 ft 11 kts 180°
2026-05-06 21:53 39.85477 -104.68398 5363 ft 13 kts 180°
2026-05-06 21:53 39.85382 -104.68399 5364 ft 15 kts 180°
2026-05-06 21:53 39.85274 -104.68400 5362 ft 16 kts 180°
2026-05-06 21:53 39.85155 -104.68402 5363 ft 18 kts 181°
2026-05-06 21:54 39.85026 -104.68405 5364 ft 19 kts 180°
2026-05-06 21:54 39.84889 -104.68406 5364 ft 20 kts 180°
2026-05-06 21:54 39.84755 -104.68407 5363 ft 19 kts 180°
2026-05-06 21:54 39.84631 -104.68408 5364 ft 17 kts 181°
2026-05-06 21:55 39.84519 -104.68409 5364 ft 15 kts 180°
2026-05-06 21:55 39.84416 -104.68409 5364 ft 14 kts 180°
2026-05-06 21:55 39.84321 -104.68409 5363 ft 13 kts 181°
2026-05-06 21:55 39.84234 -104.68412 5364 ft 12 kts 181°
2026-05-06 21:56 39.84153 -104.68415 5363 ft 11 kts 181°
2026-05-06 21:56 39.84080 -104.68418 5363 ft 9 kts 189°
2026-05-06 21:56 39.84062 -104.68459 5363 ft 5 kts 266°
2026-05-06 21:56 39.84063 -104.68520 5364 ft 20 kts 270°
2026-05-06 21:57 39.84066 -104.69009 5365 ft 88 kts 271°
2026-05-06 21:57 39.84073 -104.70079 5365 ft 145 kts 270°
2026-05-06 21:57 39.84083 -104.71586 5402 ft 185 kts 270°
2026-05-06 21:57 39.84101 -104.73285 6036 ft 189 kts 271°
2026-05-06 21:58 39.84131 -104.75022 6758 ft 194 kts 270°
2026-05-06 21:58 39.84132 -104.76786 7340 ft 198 kts 269°
2026-05-06 21:58 39.84141 -104.78660 7585 ft 218 kts 270°
2026-05-06 21:58 39.84164 -104.80729 7772 ft 239 kts 271°
2026-05-06 21:59 39.84197 -104.83008 7944 ft 265 kts 270°
2026-05-06 21:59 39.84227 -104.85473 8455 ft 277 kts 270°
2026-05-06 21:59 39.84253 -104.87993 9258 ft 279 kts 270°
2026-05-06 21:59 39.84260 -104.90483 9779 ft 281 kts 266°
2026-05-06 22:00 39.83896 -104.93012 10371 ft 282 kts 255°
2026-05-06 22:00 39.83374 -104.95451 11066 ft 285 kts 255°
2026-05-06 22:00 39.82840 -104.97939 11858 ft 285 kts 256°
2026-05-06 22:00 39.82322 -105.00432 12656 ft 286 kts 257°
2026-05-06 22:01 39.81808 -105.02939 13437 ft 287 kts 257°
2026-05-06 22:01 39.81298 -105.05462 14183 ft 289 kts 258°
2026-05-06 22:01 39.80788 -105.08003 14808 ft 293 kts 258°
2026-05-06 22:01 39.80269 -105.10585 15400 ft 297 kts 258°
2026-05-06 22:02 39.79741 -105.13207 16023 ft 302 kts 258°
2026-05-06 22:02 39.79206 -105.15862 16638 ft 305 kts 258°
2026-05-06 22:02 39.78665 -105.18545 17256 ft 309 kts 259°
2026-05-06 22:02 39.78116 -105.21267 17848 ft 313 kts 259°
2026-05-06 22:03 39.77558 -105.24021 18441 ft 317 kts 259°
2026-05-06 22:03 39.76994 -105.26809 18897 ft 321 kts 259°
2026-05-06 22:03 39.76421 -105.29627 19309 ft 325 kts 259°
2026-05-06 22:03 39.75838 -105.32489 19745 ft 329 kts 259°
2026-05-06 22:04 39.75249 -105.35371 20207 ft 331 kts 260°
2026-05-06 22:04 39.74653 -105.38296 20495 ft 341 kts 260°
2026-05-06 22:04 39.74033 -105.41341 20591 ft 356 kts 260°
2026-05-06 22:04 39.73384 -105.44513 20678 ft 370 kts 259°
2026-05-06 22:05 39.72712 -105.47784 20913 ft 379 kts 259°
2026-05-06 22:05 39.72026 -105.51110 21272 ft 384 kts 260°
2026-05-06 22:05 39.71334 -105.54469 21694 ft 387 kts 260°
2026-05-06 22:05 39.70637 -105.57860 22083 ft 391 kts 260°
2026-05-06 22:06 39.69936 -105.61294 22458 ft 396 kts 261°
2026-05-06 22:06 39.69226 -105.64766 22794 ft 400 kts 261°
2026-05-06 22:06 39.68554 -105.68282 23053 ft 405 kts 264°
2026-05-06 22:06 39.68012 -105.71925 23109 ft 415 kts 266°
2026-05-06 22:07 39.67527 -105.75666 23143 ft 425 kts 266°
2026-05-06 22:07 39.67046 -105.79493 23400 ft 434 kts 267°
2026-05-06 22:07 39.66552 -105.83377 23828 ft 437 kts 266°
2026-05-06 22:07 39.66038 -105.87281 24266 ft 440 kts 266°
2026-05-06 22:08 39.65508 -105.91205 24613 ft 444 kts 266°
2026-05-06 22:08 39.64965 -105.95166 24931 ft 448 kts 266°
2026-05-06 22:08 39.64414 -105.99160 25296 ft 451 kts 266°
2026-05-06 22:08 39.63856 -106.03180 25698 ft 454 kts 266°
2026-05-06 22:09 39.63293 -106.07222 26047 ft 457 kts 267°
2026-05-06 22:09 39.62732 -106.11242 26393 ft 461 kts 267°
2026-05-06 22:09 39.62159 -106.15343 26807 ft 463 kts 267°
2026-05-06 22:09 39.61582 -106.19465 27171 ft 466 kts 267°
2026-05-06 22:10 39.60999 -106.23611 27530 ft 469 kts 267°
2026-05-06 22:10 39.60412 -106.27786 27842 ft 472 kts 267°
2026-05-06 22:10 39.59821 -106.31975 28189 ft 474 kts 267°
2026-05-06 22:10 39.59226 -106.36181 28500 ft 476 kts 267°
2026-05-06 22:11 39.58624 -106.40419 28806 ft 478 kts 267°
2026-05-06 22:11 39.58021 -106.44650 29185 ft 479 kts 267°
2026-05-06 22:11 39.57412 -106.48927 29487 ft 483 kts 267°
2026-05-06 22:11 39.56798 -106.53223 29820 ft 485 kts 267°
2026-05-06 22:12 39.56180 -106.57529 30221 ft 485 kts 267°
2026-05-06 22:12 39.55561 -106.61818 30732 ft 481 kts 267°
2026-05-06 22:12 39.54945 -106.66061 31231 ft 478 kts 266°
2026-05-06 22:12 39.54055 -106.70246 31595 ft 486 kts 257°
2026-05-06 22:13 39.52828 -106.74280 31963 ft 488 kts 253°
2026-05-06 22:13 39.51486 -106.78321 32278 ft 489 kts 253°
2026-05-06 22:13 39.50127 -106.82350 32621 ft 487 kts 253°
2026-05-06 22:13 39.48792 -106.86371 33001 ft 484 kts 253°
2026-05-06 22:14 39.47492 -106.90385 33341 ft 483 kts 254°
2026-05-06 22:14 39.46214 -106.94405 33632 ft 483 kts 254°
2026-05-06 22:14 39.44945 -106.98436 33888 ft 482 kts 254°
2026-05-06 22:14 39.43682 -107.02453 34237 ft 480 kts 254°
2026-05-06 22:15 39.42424 -107.06442 34592 ft 476 kts 254°
2026-05-06 22:15 39.41173 -107.10396 34971 ft 472 kts 253°
2026-05-06 22:15 39.39932 -107.14311 35317 ft 468 kts 253°
2026-05-06 22:15 39.38700 -107.18191 35629 ft 465 kts 253°
2026-05-06 22:16 39.37460 -107.22000 35886 ft 465 kts 251°
2026-05-06 22:16 39.36112 -107.25796 36148 ft 464 kts 250°
2026-05-06 22:16 39.34712 -107.29552 36452 ft 462 kts 249°
2026-05-06 22:16 39.33302 -107.33270 36794 ft 458 kts 249°
2026-05-06 22:17 39.31900 -107.36960 37108 ft 455 kts 248°
2026-05-06 22:17 39.30510 -107.40635 37358 ft 454 kts 249°
2026-05-06 22:17 39.29134 -107.44294 37581 ft 453 kts 248°
2026-05-06 22:17 39.27765 -107.47947 37860 ft 450 kts 248°
2026-05-06 22:18 39.26409 -107.51576 38074 ft 449 kts 248°
2026-05-06 22:18 39.25048 -107.55220 38045 ft 451 kts 248°
2026-05-06 22:18 39.22342 -107.62460 38063 ft 450 kts 248°
2026-05-06 22:19 39.19618 -107.69722 38049 ft 448 kts 248°
2026-05-06 22:19 39.16901 -107.76947 38044 ft 446 kts 248°
2026-05-06 22:20 39.14204 -107.84102 38032 ft 445 kts 248°
2026-05-06 22:20 39.11494 -107.91275 38041 ft 445 kts 248°
2026-05-06 22:21 39.08774 -107.98457 38060 ft 446 kts 248°
2026-05-06 22:21 39.06047 -108.05639 38072 ft 447 kts 248°
2026-05-06 22:22 39.03322 -108.12802 38073 ft 449 kts 248°
2026-05-06 22:22 39.00565 -108.20029 38078 ft 450 kts 248°
2026-05-06 22:23 38.97794 -108.27273 38081 ft 452 kts 248°
2026-05-06 22:23 38.95028 -108.34490 38093 ft 453 kts 248°
2026-05-06 22:24 38.92233 -108.41764 38098 ft 454 kts 248°
2026-05-06 22:24 38.89421 -108.49064 38088 ft 455 kts 247°
2026-05-06 22:25 38.86627 -108.56298 38089 ft 456 kts 247°
2026-05-06 22:25 38.83782 -108.63650 38075 ft 456 kts 247°
2026-05-06 22:26 38.80972 -108.70890 38065 ft 455 kts 247°
2026-05-06 22:26 38.78148 -108.78150 38075 ft 453 kts 247°
2026-05-06 22:27 38.75348 -108.85335 38081 ft 453 kts 247°
2026-05-06 22:27 38.72524 -108.92565 38064 ft 453 kts 247°
2026-05-06 22:28 38.69692 -108.99794 38071 ft 453 kts 246°
2026-05-06 22:28 38.66878 -109.06960 38080 ft 452 kts 246°
2026-05-06 22:29 38.64051 -109.14145 38076 ft 451 kts 246°
2026-05-06 22:29 38.61220 -109.21324 38076 ft 452 kts 246°
2026-05-06 22:30 38.58382 -109.28504 38071 ft 452 kts 246°
2026-05-06 22:30 38.55549 -109.35654 38071 ft 453 kts 246°
2026-05-06 22:31 38.52694 -109.42843 38069 ft 453 kts 246°
2026-05-06 22:31 38.49852 -109.49981 38076 ft 453 kts 246°
2026-05-06 22:32 38.46987 -109.57161 38072 ft 454 kts 246°
2026-05-06 22:32 38.44109 -109.64356 38066 ft 454 kts 246°
2026-05-06 22:33 38.41227 -109.71546 38052 ft 455 kts 246°
2026-05-06 22:33 38.38356 -109.78691 38041 ft 455 kts 245°
2026-05-06 22:34 38.35466 -109.85869 38041 ft 455 kts 245°
2026-05-06 22:34 38.32583 -109.93013 38036 ft 455 kts 245°
2026-05-06 22:35 38.29678 -110.00198 38028 ft 455 kts 245°
2026-05-06 22:35 38.26889 -110.07383 38017 ft 454 kts 248°
2026-05-06 22:36 38.24353 -110.14749 38023 ft 454 kts 249°
2026-05-06 22:36 38.21852 -110.22137 38015 ft 454 kts 249°
2026-05-06 22:37 38.19332 -110.29465 38003 ft 453 kts 249°
2026-05-06 22:37 38.17213 -110.35564 38011 ft 452 kts 248°
2026-05-06 22:38 38.14246 -110.44059 38014 ft 452 kts 248°
2026-05-06 22:38 38.12119 -110.50136 38008 ft 452 kts 248°
2026-05-06 22:39 38.09557 -110.57436 37996 ft 452 kts 248°
2026-05-06 22:39 38.06992 -110.64733 37986 ft 452 kts 248°
2026-05-06 22:40 38.04432 -110.71995 37977 ft 452 kts 248°
2026-05-06 22:40 38.01854 -110.79289 37974 ft 452 kts 248°
2026-05-06 22:41 37.97999 -110.90167 37965 ft 452 kts 248°
2026-05-06 22:42 37.95409 -110.97452 37967 ft 452 kts 248°
2026-05-06 22:42 37.92815 -111.04732 37956 ft 453 kts 248°
2026-05-06 22:43 37.90212 -111.12017 37942 ft 453 kts 248°
2026-05-06 22:43 37.87630 -111.19226 37942 ft 452 kts 248°
2026-05-06 22:44 37.85026 -111.26480 37934 ft 452 kts 248°
2026-05-06 22:44 37.82420 -111.33720 37941 ft 451 kts 247°
2026-05-06 22:45 37.79815 -111.40944 37927 ft 451 kts 247°
2026-05-06 22:45 37.77206 -111.48158 37940 ft 451 kts 247°
2026-05-06 22:46 37.74607 -111.55330 37927 ft 452 kts 247°
2026-05-06 22:46 37.71988 -111.62539 37940 ft 452 kts 248°
2026-05-06 22:47 37.69357 -111.69764 37935 ft 453 kts 247°
2026-05-06 22:47 37.66709 -111.77017 38008 ft 453 kts 247°
2026-05-06 22:48 37.64063 -111.84251 38052 ft 454 kts 247°
2026-05-06 22:48 37.61429 -111.91433 38094 ft 452 kts 247°
2026-05-06 22:49 37.58803 -111.98574 38122 ft 449 kts 247°
2026-05-06 22:49 37.56169 -112.05729 38147 ft 448 kts 246°
2026-05-06 22:50 37.53530 -112.12871 38138 ft 450 kts 246°
2026-05-06 22:50 37.50376 -112.19685 38119 ft 454 kts 238°
2026-05-06 22:51 37.46796 -112.26303 38059 ft 457 kts 237°
2026-05-06 22:51 37.43261 -112.32916 38019 ft 458 kts 238°
2026-05-06 22:52 37.39755 -112.39624 37958 ft 457 kts 238°
2026-05-06 22:52 37.36294 -112.46281 37966 ft 455 kts 238°
2026-05-06 22:53 37.32823 -112.52943 37955 ft 453 kts 238°
2026-05-06 22:53 37.29393 -112.59508 37976 ft 451 kts 238°
2026-05-06 22:54 37.25937 -112.66114 37965 ft 449 kts 238°
2026-05-06 22:54 37.22527 -112.72615 37975 ft 447 kts 237°
2026-05-06 22:55 37.19103 -112.79122 38008 ft 446 kts 238°
2026-05-06 22:55 37.15678 -112.85618 38052 ft 445 kts 237°
2026-05-06 22:56 37.12280 -112.92056 38071 ft 446 kts 237°
2026-05-06 22:56 37.08844 -112.98554 38116 ft 447 kts 237°
2026-05-06 22:56 37.07122 -113.01805 37936 ft 451 kts 237°
2026-05-06 22:57 37.05365 -113.05122 37282 ft 459 kts 237°
2026-05-06 22:57 37.03595 -113.08457 36605 ft 459 kts 237°
2026-05-06 22:57 37.01827 -113.11787 35921 ft 460 kts 237°
2026-05-06 22:57 37.00045 -113.15138 35115 ft 464 kts 237°
2026-05-06 22:58 36.98273 -113.18467 34294 ft 468 kts 237°
2026-05-06 22:58 36.96463 -113.21865 33701 ft 465 kts 237°
2026-05-06 22:58 36.94694 -113.25182 33777 ft 455 kts 237°
2026-05-06 22:58 36.92926 -113.28494 33618 ft 461 kts 237°
2026-05-06 22:59 36.91129 -113.31857 33194 ft 467 kts 237°
2026-05-06 22:59 36.89317 -113.35242 32433 ft 470 kts 237°
2026-05-06 22:59 36.87491 -113.38653 31609 ft 474 kts 237°
2026-05-06 22:59 36.85651 -113.42088 30801 ft 478 kts 237°
2026-05-06 23:00 36.83797 -113.45548 30114 ft 479 kts 237°
2026-05-06 23:00 36.81947 -113.48994 29507 ft 476 kts 237°
2026-05-06 23:00 36.80121 -113.52395 29065 ft 468 kts 237°
2026-05-06 23:00 36.78321 -113.55748 28616 ft 461 kts 236°
2026-05-06 23:01 36.76547 -113.59053 28125 ft 456 kts 236°
2026-05-06 23:01 36.74792 -113.62321 27616 ft 451 kts 236°
2026-05-06 23:01 36.73052 -113.65560 27145 ft 446 kts 236°
2026-05-06 23:01 36.71332 -113.68758 26671 ft 441 kts 236°
2026-05-06 23:02 36.69653 -113.71875 26239 ft 436 kts 236°
2026-05-06 23:02 36.67971 -113.74998 25796 ft 431 kts 236°
2026-05-06 23:02 36.66309 -113.78079 25375 ft 426 kts 236°
2026-05-06 23:02 36.64664 -113.81126 24958 ft 421 kts 236°
2026-05-06 23:03 36.63035 -113.84141 24523 ft 416 kts 236°
2026-05-06 23:03 36.61427 -113.87115 24105 ft 412 kts 236°
2026-05-06 23:03 36.59834 -113.90056 23697 ft 407 kts 236°
2026-05-06 23:03 36.58259 -113.92919 23249 ft 403 kts 234°
2026-05-06 23:04 36.56584 -113.95707 22756 ft 399 kts 232°
2026-05-06 23:04 36.54881 -113.98418 22268 ft 396 kts 231°
2026-05-06 23:04 36.53185 -114.01094 21789 ft 392 kts 231°
2026-05-06 23:04 36.51506 -114.03754 21315 ft 389 kts 232°
2026-05-06 23:05 36.49847 -114.06399 20860 ft 385 kts 232°
2026-05-06 23:05 36.48225 -114.08997 20418 ft 382 kts 232°
2026-05-06 23:05 36.46602 -114.11605 19962 ft 379 kts 232°
2026-05-06 23:05 36.44992 -114.14193 19525 ft 376 kts 232°
2026-05-06 23:06 36.43394 -114.16761 19079 ft 373 kts 232°
2026-05-06 23:06 36.41835 -114.19263 18737 ft 368 kts 232°
2026-05-06 23:06 36.40288 -114.21743 18606 ft 356 kts 232°
2026-05-06 23:06 36.38788 -114.24137 18488 ft 345 kts 231°
2026-05-06 23:07 36.37316 -114.26455 18244 ft 338 kts 231°
2026-05-06 23:07 36.35861 -114.28731 17863 ft 335 kts 231°
2026-05-06 23:07 36.34411 -114.30998 17412 ft 335 kts 232°
2026-05-06 23:07 36.32968 -114.33257 17057 ft 332 kts 231°
2026-05-06 23:08 36.31557 -114.35465 16630 ft 331 kts 232°
2026-05-06 23:08 36.30132 -114.37697 16238 ft 329 kts 232°
2026-05-06 23:08 36.28715 -114.39916 15912 ft 326 kts 232°
2026-05-06 23:08 36.27310 -114.42112 15545 ft 325 kts 232°
2026-05-06 23:09 36.25905 -114.44308 15212 ft 322 kts 232°
2026-05-06 23:09 36.24508 -114.46475 14860 ft 320 kts 232°
2026-05-06 23:09 36.23124 -114.48597 14498 ft 319 kts 232°
2026-05-06 23:09 36.21730 -114.50731 14156 ft 317 kts 232°
2026-05-06 23:10 36.20347 -114.52847 13826 ft 315 kts 232°
2026-05-06 23:10 36.18980 -114.54939 13622 ft 308 kts 232°
2026-05-06 23:10 36.17644 -114.56986 13343 ft 303 kts 232°
2026-05-06 23:10 36.16328 -114.58999 13076 ft 298 kts 232°
2026-05-06 23:11 36.15028 -114.60987 12762 ft 296 kts 232°
2026-05-06 23:11 36.13729 -114.62973 12410 ft 295 kts 232°
2026-05-06 23:11 36.12439 -114.64944 12127 ft 294 kts 232°
2026-05-06 23:11 36.11178 -114.66867 11872 ft 290 kts 232°
2026-05-06 23:12 36.09916 -114.68789 11713 ft 281 kts 232°
2026-05-06 23:12 36.08710 -114.70623 11511 ft 269 kts 232°
2026-05-06 23:12 36.07656 -114.72464 11267 ft 258 kts 250°
2026-05-06 23:12 36.07283 -114.74578 10969 ft 250 kts 269°
2026-05-06 23:13 36.07269 -114.76704 10755 ft 245 kts 272°
2026-05-06 23:13 36.07299 -114.78777 10467 ft 244 kts 272°
2026-05-06 23:13 36.07321 -114.80880 10194 ft 244 kts 272°
2026-05-06 23:13 36.07335 -114.82959 9867 ft 240 kts 272°
2026-05-06 23:14 36.07347 -114.85030 9315 ft 245 kts 271°
2026-05-06 23:14 36.07347 -114.87176 8709 ft 252 kts 271°
2026-05-06 23:14 36.07345 -114.89353 8165 ft 255 kts 270°